Regional Weather Roundup
Issued by NWS Upton, NY

Current Version | Previous Version | Text Only | Print | Product List | Glossary On
Versions: 1 2 3 4 5 6 7 8 9 10 11 12 13 14 15 16 17 18 19 20 21 22 23 24 25 26 27
000
ASUS41 KOKX 231305
RWROKX

REGIONAL WEATHER ROUNDUP
NATIONAL WEATHER SERVICE NEW YORK NY
900 AM EDT THU OCT 23 2014

NOTE: "FAIR" INDICATES FEW OR NO CLOUDS BELOW 12,000 FEET WITH NO
SIGNIFICANT WEATHER AND/OR OBSTRUCTIONS TO VISIBILITY.

NYZ071-072-176-178-NJZ106-104-231400-
NEW YORK CITY METRO AREA


CITY           SKY/WX    TMP DP  RH WIND       PRES   REMARKS
CENTRAL PARK   LGT RAIN  50  47  89 N8        29.73S FOG
LAGUARDIA APRT LGT RAIN  51  47  86 N16G30    29.70R
KENNEDY INTL   LGT RAIN  51  47  86 N23G30    29.69R
NEWARK/LIBERTY LGT RAIN  51  48  89 N17G24    29.72R
BRNX BOT. GARD   N/A     48  46  93 NW10      29.71S
TETERBORO      RAIN      51  46  83 N12       29.71R
$$

NYZ177-179-078>081-231400-
LONG ISLAND NEW YORK

CITY           SKY/WX    TMP DP  RH WIND       PRES   REMARKS
FARMINGDALE    LGT RAIN  51  48  89 N13G18    29.66S
ISLIP          LGT RAIN  52  48  86 N16G23    29.62S
SHIRLEY        CLOUDY    52  48  86 N12       29.63S
WESTHAMPTON    LGT RAIN  53  49  86 N15       29.61S
MONTAUK POINT    N/A     56  51  84 N14G23    29.59R
$$

NYZ052-065-067-231400-
HUDSON VALLEY

CITY           SKY/WX    TMP DP  RH WIND       PRES   REMARKS
WHITE PLAINS   CLOUDY    48  44  86 N21G30    29.67F
NEWBURGH       NOT AVBL
MONTGOMERY     LGT RAIN  49  47  93 NE3       29.75S
POUGHKEEPSIE   LGT RAIN  49  44  83 N14G29    29.76R
ALBANY         LGT RAIN  46  43  89 N9        29.86F
$$

NJZ001-105-106-008-010-013-015-019>022-104-231400-
NEW JERSEY

CITY           SKY/WX    TMP DP  RH WIND       PRES   REMARKS
NEWARK/LIBERTY LGT RAIN  51  48  89 N17G24    29.72R
TETERBORO      RAIN      51  46  83 N12       29.71R
CALDWELL       RAIN      50  46  86 VRB7      29.73S FOG
MORRISTOWN     LGT RAIN  52  50  93 NE6       29.74S FOG
SOMERVILLE     LGT RAIN  52  46  80 N8        29.73S
SUSSEX         RAIN      52  46  80 N7        29.76R
ANDOVER          N/A     48  45  89 N8G17     29.76S
TRENTON        LGT RAIN  50  46  86 NW9G18    29.75R
MILLVILLE      CLOUDY    51  48  89 NW16      29.76S
ATLANTIC CITY  CLOUDY    50  48  93 NW18G26   29.72S
WRIGHTSTOWN    LGT RAIN  50  49  98 NW14G20   29.72R
TOMS RIVER     CLOUDY    50  48  93 NW8       29.71S
BELMAR         CLOUDY    52  45  76 NW20G25   29.70R
$$

PAZ047>061-062-071-231400-
EASTERN PENNSYLVANIA

CITY           SKY/WX    TMP DP  RH WIND       PRES   REMARKS
PHILADELPHIA   CLOUDY    51  46  83 NW18G25   29.78R
ALLENTOWN      CLOUDY    50  42  74 NW15      29.80S
SCRANTON       LGT RAIN  46  40  79 N8        29.87S
$$

CTZ002-004>006-009-010-012-RIZ004-006-007-MAZ004-011-015-231400-
SOUTHERN NEW ENGLAND
 IN CT

CITY           SKY/WX    TMP DP  RH WIND       PRES   REMARKS
BRADLEY INTL   RAIN      50  46  86 N23G35    29.66F
HARTFORD       CLOUDY    51  46  83 N13G26    29.66F
DANBURY        CLOUDY    48  43  82 NW10      29.71F
WTRBRY/OXFORD  CLOUDY    50  43  76 N20G35    29.67F
BRIDGEPORT     LGT RAIN  54  47  77 N25G33    29.63F
MERIDEN        CLOUDY    52  46  80 N14G26    29.65F
NEW HAVEN      LGT RAIN  53  47  79 N22G39    29.61F
CHESTER        CLOUDY    52  46  82 N13       29.63R
GROTON         PTSUNNY   54  49  83 N17       29.58R
WILLIMANTIC    LGT RAIN  52  46  80 N17G28    29.63R

 IN RI

CITY           SKY/WX    TMP DP  RH WIND       PRES   REMARKS
PROVIDENCE     CLOUDY    54  49  83 N23G30    29.61S
BLOCK ISLAND   CLOUDY    55  48  76 N20G30    29.57R
WESTERLY       CLOUDY    55  48  77 N15G26    29.59R

 IN MA

CITY           SKY/WX    TMP DP  RH WIND       PRES   REMARKS
BOSTON         RAIN      50  48  93 N23G37    29.65F FOG
WORCESTER      LGT RAIN  47  45  93 N25G39    29.64F
WESTFIELD      RAIN      49  46  90 N18G30    29.70F
PROVINCETOWN   PTSUNNY   57   3  11 N15G22    29.56R
NANTUCKET      PTSUNNY   57  55  93 N14       29.52F
$$

ANZ330-335-338-340-345-350-353-355-231400-
COASTAL MARINE OBSERVATIONS


STATION/POSITION TIME  SKY/WX   TEMP    WIND        PRES    VSBY  WAVE
                                AIR SEA DIR/SP/G                  HT/PER
                 (UTC)          (F)     (DEG/KT/KT) (MB)    (MI)  (FT/S)
NY HARB ENTRANCE NOT AVBL
4S FIRE IS       1300               63                N/A           5/ 7
20S FIRE ISLAND  1300            55 64  360/ 29/ 35 1002.0          8/ 8
23SW MTP         1300                                 N/A           8/ 6
HUDSON CANYON    1300            58 67  350/ 25/ 31 1000.2         11/ 8
EXECUTION ROCKS  1300            52 62  330/ 14/ 21   N/A
WESTERN LI SOUND 1300            52     350/ 17/ 21   N/A           3/ 5
CENTRAL LI SOUND 1200            54 63   20/ 21/ 25   N/A           3/ 4
EASTERN LI SOUND 1200            56 63   20/ 17/ 23   N/A
ROBBINS REEF     1300            51     350/ 17/ 22 1004.7
$$


>>>>>>>>>>>>>>>>>>>>>>>>>>>> KEY <<<<<<<<<<<<<<<<<<<<<<<<<<<
>                                                          <
>     SKY/WX - SKY CONDITION/PRESENT WEATHER               <
>     TMP    - TEMPERATURE IN FAHRENHEIT                   <
>     DP     - DEWPOINT IN FAHRENHEIT                      <
>     RH     - RELATIVE HUMIDITY IN PERCENT                <
>     WIND   - DIRECTION AND SPEED IN MPH                  <
>     PRES   - MEAN SEA LEVEL PRESSURE IN INCHES OF HG     <
>     WCI    - WIND CHILL INDEX                            <
>     VSB    - VISIBILITY IN MILES                         <
>     HX     - HEAT INDEX                                  <
>     TC     - TEMPERATURE IN CELSIUS                      <
>     VRB    - VARIABLE WIND DIRECTION                     <
>                                                          <
>>>>>>>>>>>>>>>>>>>>>>>>>>>> KEY <<<<<<<<<<<<<<<<<<<<<<<<<<<





USA.gov is the U.S. government's official web portal to all federal, state and local government web resources and services.